DateTimeUTC,F1_A11,F1_S11,BsB_S11,BsG_S11,BsR_S11,BbsB_S11,BbsG_S11,BbsR_S11,BaB_A11,BaG_A11,BaR_A11,Tu_S11,T_S11,Uu_S11,U_S11,P_S11,T1_A11
2021-07-28T10:00:00Z,00000200,20000000,,,,,,,-000.61,-000.62,-000.23,19.0,25.4,16.2,10.9,0686.8,31.1
2021-07-28T10:01:00Z,00000200,20000000,,,,,,,-000.31,0000.16,-000.17,19.0,25.5,16.2,10.9,0686.8,31.1
2021-07-28T10:02:00Z,00000200,20000000,,,,,,,-000.32,-000.15,-000.26,19.0,25.5,16.2,10.9,0686.8,31.1
2021-07-28T10:03:00Z,00000200,60000000,,,,,,,0001.53,0000.97,0001.13,19.0,25.5,16.2,10.9,0686.8,31.1
2021-07-28T10:04:00Z,00000200,40000000,0012.92,0008.74,0004.92,0001.68,0001.06,0000.80,0001.38,0001.33,0001.05,19.1,25.3,16.0,11.0,0687.7,31.1
2021-07-28T10:05:00Z,00000200,00000000,0012.01,0007.74,0005.04,0000.99,0001.20,0000.91,0001.28,0000.90,0001.10,19.2,25.3,16.0,11.0,0687.8,31.1
2021-07-28T10:06:00Z,00000200,00000000,0011.04,0007.66,0004.50,0001.38,0000.91,0000.50,0001.29,0001.05,0000.83,19.2,25.3,16.0,11.0,0687.7,31.1
2021-07-28T10:07:00Z,00000200,00000000,0010.81,0007.47,0004.55,0001.44,0000.88,0000.59,0000.99,0001.13,0000.82,19.2,25.3,15.9,11.0,0687.6,31.1
2021-07-28T10:08:00Z,00000200,00000000,0011.10,0007.41,0004.80,0001.21,0000.95,0000.71,0000.97,0001.51,0001.05,19.2,25.3,15.9,11.0,0687.7,31.1
2021-07-28T10:09:00Z,00000200,00000000,0011.48,0007.43,0004.60,0000.77,0001.07,0000.59,0001.35,0001.04,0001.03,19.2,25.3,15.9,11.0,0687.7,31.1
2021-07-28T10:10:00Z,00000200,00000000,0011.01,0007.29,0004.75,0001.03,0001.03,0001.01,0001.09,0001.09,0000.95,19.2,25.2,16.0,11.0,0687.7,31.1
2021-07-28T10:11:00Z,00000200,00000000,0010.60,0007.57,0004.38,0001.03,0001.03,0000.74,0001.56,0001.11,0000.94,19.2,25.2,16.0,11.0,0687.7,31.1
2021-07-28T10:12:00Z,00000200,00000000,0012.03,0007.54,0004.52,0000.90,0000.80,0000.67,0001.04,0001.18,0000.86,19.2,25.3,15.9,11.0,0687.7,31.1
2021-07-28T10:13:00Z,00000200,00000000,0011.45,0008.01,0004.51,0001.37,0001.16,0000.80,0001.33,0001.03,0001.16,19.2,25.3,15.9,11.0,0687.6,31.1
2021-07-28T10:14:00Z,00000200,00000000,0011.48,0008.38,0004.81,0001.79,0001.08,0000.63,0001.19,0001.38,0001.20,19.2,25.3,15.9,11.0,0687.6,31.1
2021-07-28T10:15:00Z,00000200,00000000,0011.94,0007.81,0004.59,0001.98,0001.22,0000.76,0001.54,0000.88,0000.78,19.3,25.2,15.9,11.0,0687.6,31.1
2021-07-28T10:16:00Z,00000200,00000000,0011.59,0008.17,0004.61,0001.43,0000.95,0000.80,0001.17,0001.18,0001.18,19.3,25.3,15.9,11.0,0687.7,31.1
2021-07-28T10:17:00Z,00000200,00000000,0012.18,0008.00,0005.13,0001.41,0000.84,0000.77,0000.87,0001.22,0000.85,19.3,25.3,16.0,11.1,0687.7,31.1
2021-07-28T10:18:00Z,00000200,00000000,0011.61,0008.00,0004.78,0001.82,0000.94,0000.63,0001.28,0001.50,0001.04,19.3,25.2,16.0,11.1,0687.7,31.1
2021-07-28T10:19:00Z,00000200,00000000,0011.28,0007.80,0004.67,0001.49,0001.08,0000.71,0001.91,0001.19,0001.30,19.2,25.3,16.1,11.1,0687.7,31.1
2021-07-28T10:20:00Z,00000200,00000000,0012.05,0007.94,0004.26,0001.59,0000.91,0000.57,0001.18,0001.28,0000.84,19.2,25.3,16.0,11.1,0687.7,31.1
2021-07-28T10:21:00Z,00000200,00000000,0011.28,0007.73,0004.22,0001.41,0001.01,0000.56,0000.83,0000.90,0000.76,19.3,25.3,15.9,11.1,0687.6,31.1
2021-07-28T10:22:00Z,00000200,00000000,0011.09,0007.12,0004.15,0001.14,0000.89,0000.74,0001.02,0000.98,0000.80,19.3,25.2,15.9,11.0,0687.7,31.1
2021-07-28T10:23:00Z,00000200,00000000,0010.15,0007.27,0003.97,0001.04,0000.84,0000.35,0001.10,0001.09,0000.92,19.3,25.3,16.0,11.1,0687.7,31.1
2021-07-28T10:24:00Z,00000200,00000000,0010.16,0007.17,0003.99,0001.82,0000.86,0000.45,0001.13,0001.29,0001.25,19.3,25.2,15.9,11.1,0687.7,31.1
2021-07-28T10:25:00Z,00000200,00000000,0009.78,0006.50,0004.01,0001.80,0000.87,0000.39,0001.03,0000.89,0000.76,19.3,25.3,15.9,11.0,0687.6,31.1
2021-07-28T10:26:00Z,00000200,00000000,0010.22,0006.87,0004.18,0001.22,0001.11,0000.61,0001.05,0001.08,0000.65,19.3,25.3,15.9,11.0,0687.6,31.1
2021-07-28T10:27:00Z,00000200,00000000,0009.93,0007.19,0004.31,0001.38,0000.80,0000.46,0001.07,0001.11,0000.87,19.3,25.3,15.9,11.0,0687.7,31.1
2021-07-28T10:28:00Z,00000200,00000000,0010.08,0007.10,0004.10,0001.17,0001.02,0000.37,0001.28,0000.67,0000.99,19.3,25.3,16.0,11.1,0687.6,31.1
2021-07-28T10:29:00Z,00000200,00000000,0010.53,0007.15,0004.79,0001.05,0001.08,0000.84,0001.17,0001.32,0001.02,19.3,25.3,15.9,11.0,0687.7,31.1
2021-07-28T10:30:00Z,00000200,00000000,0009.97,0007.32,0004.45,0000.98,0000.93,0000.60,0001.52,0001.14,0000.75,19.3,25.3,16.0,11.1,0687.7,31.1
2021-07-28T10:31:00Z,00000200,00000000,0010.58,0006.88,0004.19,0000.96,0000.79,0000.85,0000.91,0000.80,0000.87,19.3,25.3,16.0,11.1,0687.7,31.1
2021-07-28T10:32:00Z,00000200,00000000,0009.33,0006.93,0004.24,0001.58,0001.01,0000.79,0000.71,0001.09,0000.95,19.3,25.3,16.0,11.1,0687.7,31.1
2021-07-28T10:33:00Z,00000200,00000000,0010.61,0006.96,0004.47,0001.34,0000.94,0001.09,0001.67,0001.23,0000.92,19.3,25.3,16.0,11.1,0687.7,31.1
2021-07-28T10:34:00Z,00000200,00000000,0010.93,0007.23,0004.55,0001.53,0000.62,0000.55,0001.24,0001.27,0001.29,19.3,25.3,16.0,11.1,0687.7,31.1
2021-07-28T10:35:00Z,00000200,00000000,0010.75,0007.42,0004.39,0001.23,0000.76,0000.91,0001.04,0001.12,0000.82,19.3,25.3,16.0,11.1,0687.7,31.1
2021-07-28T10:36:00Z,00000200,00000000,0010.14,0007.01,0004.25,0000.87,0001.01,0000.31,0001.28,0000.91,0000.89,19.3,25.3,16.0,11.1,0687.7,31.1
2021-07-28T10:37:00Z,00000200,00000000,0010.35,0007.62,0004.45,0001.32,0000.59,0000.68,0001.07,0001.11,0000.91,19.3,25.3,16.0,11.2,0687.7,31.1
2021-07-28T10:38:00Z,00000200,00000000,0010.43,0007.41,0004.94,0001.44,0001.21,0000.92,0001.26,0001.13,0000.95,19.3,25.3,16.0,11.2,0687.7,31.1
2021-07-28T10:39:00Z,00000200,00000000,0010.36,0007.56,0004.48,0001.66,0000.95,0000.76,0001.02,0000.99,0000.62,19.3,25.3,16.0,11.1,0687.7,31.1
2021-07-28T10:40:00Z,00000200,00000000,0011.27,0007.35,0004.68,0001.32,0000.80,0000.67,0001.13,0001.11,0000.98,19.3,25.3,15.9,11.1,0687.7,31.1
2021-07-28T10:41:00Z,00000200,00000000,0011.48,0007.44,0005.05,0000.98,0000.95,0001.00,0001.58,0001.22,0001.13,19.4,25.3,15.9,11.1,0687.7,31.1
2021-07-28T10:42:00Z,00000200,00000000,0011.41,0007.68,0004.58,0001.98,0000.81,0000.71,0000.67,0000.99,0000.91,19.4,25.3,15.9,11.1,0687.7,31.1
2021-07-28T10:43:00Z,00000200,00000000,0010.58,0007.30,0004.67,0001.23,0000.95,0000.78,0001.25,0001.28,0001.25,19.3,25.3,15.9,11.1,0687.8,31.1
2021-07-28T10:44:00Z,00000200,00000000,0010.85,0007.72,0004.78,0001.88,0001.01,0000.44,0001.26,0000.96,0001.06,19.3,25.3,16.0,11.1,0687.7,31.1
2021-07-28T10:45:00Z,00000200,00000000,0011.35,0007.31,0004.61,0001.31,0001.22,0000.75,0001.27,0001.38,0000.48,19.4,25.3,15.9,11.1,0687.8,31.1
2021-07-28T10:46:00Z,00000200,00000000,0011.61,0007.56,0004.48,0000.91,0000.80,0000.70,0000.94,0001.26,0001.07,19.4,25.3,15.9,11.1,0687.6,31.1
2021-07-28T10:47:00Z,00000200,00000000,0010.23,0007.51,0004.57,0001.75,0001.07,0000.77,0001.06,0000.78,0001.03,19.4,25.3,16.0,11.1,0687.7,31.1
2021-07-28T10:48:00Z,00000200,00000000,0010.47,0007.83,0004.44,0001.45,0000.97,0000.81,0001.30,0001.15,0000.93,19.4,25.3,16.1,11.2,0687.6,31.1
2021-07-28T10:49:00Z,00000200,00000000,0010.63,0007.13,0004.38,0001.82,0000.93,0000.68,0001.16,0001.07,0000.96,19.4,25.3,16.1,11.2,0687.6,31.1
2021-07-28T10:50:00Z,00000200,00000000,0011.08,0007.29,0004.73,0001.78,0001.24,0000.92,0001.76,0001.14,0001.24,19.4,25.3,16.0,11.1,0687.7,31.1
2021-07-28T10:51:00Z,00000200,00000000,0010.71,0007.64,0004.63,0001.51,0000.80,0000.81,0000.82,0001.13,0000.72,19.4,25.3,16.0,11.2,0687.6,31.1
2021-07-28T10:52:00Z,00000200,00000000,0011.02,0007.85,0004.34,0001.74,0001.42,0000.88,0001.30,0001.30,0000.95,19.4,25.3,16.0,11.2,0687.7,31.1
2021-07-28T10:53:00Z,00000200,00000000,0010.50,0007.80,0004.66,0001.13,0000.87,0000.98,0001.13,0001.14,0001.27,19.4,25.3,16.1,11.2,0687.7,31.1
2021-07-28T10:54:00Z,00000200,00000000,0011.59,0007.94,0004.68,0001.06,0000.98,0000.82,0001.67,0001.21,0000.87,19.4,25.3,16.1,11.2,0687.7,31.1
2021-07-28T10:55:00Z,00000200,00000000,0011.25,0007.84,0004.79,0001.15,0001.13,0000.99,0001.33,0001.44,0001.13,19.4,25.3,16.2,11.2,0687.8,31.1
2021-07-28T10:56:00Z,00000200,00000000,0011.38,0007.37,0004.99,0001.29,0001.22,0000.81,0001.20,0001.13,0000.89,19.4,25.3,16.4,11.4,0687.7,31.1
2021-07-28T10:57:00Z,00000200,40000000,,,,,,,-000.23,-000.17,0000.10,19.5,25.4,16.3,11.4,0687.7,31.1
2021-07-28T10:58:00Z,00000200,60000000,,,,,,,-000.01,-000.21,-000.27,19.3,25.5,16.1,11.0,0686.8,31.1
2021-07-28T10:59:00Z,00000200,20000000,,,,,,,-000.26,0000.25,0000.04,19.3,25.6,16.0,10.9,0686.8,31.1
